[[{"header":{"parameterUnit":"m.s-1","parameterCategory":2,"la1":30.2991,"la2":30.254,"lo1":-89.0895,"lo2":-89.0444,"dy":0.0017,"dx":0.0017,"nx":28,"ny":28,"refTime":"2025-04-17T09:00:00:Z","depth":"0","parameterNumber":2,"parameterNumberName":"U-component_of_CURRENTS"},"data":[0,0,0,0,0,0,0,0,0,0,0,0,0,0,0,0,0,0,0,0,0,0,0,0,0,0,0,0,0,0,0,0,0,0,0,0,0,0,0,0,0,0,0,0,0,0,0,0,0,0,0,0,0,0,0,0,0,0,0.1225,0.1225,0,0.125,0.125,0.125,0.1251,0.1251,0.1251,0.1251,0.1255,0.1256,0.1256,0,0,0,0,0,0,0,0,0,0,0,0,0,0.1178,0.1178,0.1225,0.1225,0.1226,0.125,0.125,0.125,0.1252,0.1251,0.1251,0.1251,0.1255,0.1255,0.1256,0,0,0,0,0,0,0,0,0,0,0,0,0,0.1199,0.1179,0.1225,0.123,0.1231,0.125,0.125,0.125,0.1252,0.1251,0.1251,0.1251,0.1255,0.1255,0.1256,0.1265,0,0,0.1257,0.1258,0,0,0,0,0,0,0,0,0.1198,0.1201,0.1229,0.123,0.1231,0.1248,0.1235,0.1255,0.1252,0.1243,0.1251,0.125,0.1252,0.1252,0.1257,0.1265,0.1266,0.1257,0.1258,0.1258,0.1258,0,0,0,0,0,0,0,0.1196,0.12,0.1234,0.1229,0.123,0.1231,0.1233,0.1239,0.1248,0.1243,0.1244,0.1248,0.1252,0.1256,0.1257,0.1266,0.1257,0.1258,0.1258,0.1258,0.1281,0.1281,0,0,0,0,0,0,0.1196,0.1198,0.1233,0.1235,0.1214,0.1232,0.1235,0.1242,0.1248,0.1249,0.1248,0.1248,0.1256,0.1256,0.1257,0.1266,0.1258,0.1258,0.1259,0.1281,0.1281,0.1281,0,0,0,0,0,0,0.1195,0.1199,0.1232,0.1217,0.1222,0.1233,0.1241,0.1243,0.1249,0.1252,0.1252,0.1253,0.1256,0.1256,0.1265,0.1266,0.1259,0.1259,0.128,0.1281,0.1281,0.1285,0,0,0,0,0,0,0.1193,0.1198,0.1204,0.1218,0.1223,0.1246,0.1242,0.1243,0.1252,0.1252,0.1257,0.1257,0.1255,0.1264,0.1265,0.1267,0.1259,0.128,0.128,0.1281,0.1285,0.1286,0.1287,0,0,0,0,0,0.1191,0.1202,0.1204,0.1208,0.123,0.1247,0.125,0.1255,0.1253,0.1259,0.1261,0.1257,0.1268,0.1265,0.1266,0.1268,0.128,0.128,0.1281,0.1284,0.1286,0.1287,0,0,0,0,0,0,0.1184,0.1203,0.1206,0.1222,0.1234,0.1247,0.1256,0.1258,0.1265,0.1265,0.1263,0.1263,0.127,0.1271,0.1267,0.1276,0.1273,0.1274,0.1275,0.1276,0.1277,0.1292,0.126,0,0,0,0,0,0.1186,0.1198,0.1214,0.1226,0.1234,0.1245,0.1252,0.1257,0.1265,0.1268,0.1269,0.1271,0.1274,0.1277,0.128,0.1288,0.1348,0.129,0.1291,0.1292,0.1305,0.1404,0.1417,0.1284,0.1284,0.1284,0,0,0.1185,0.1198,0.1205,0.1226,0.1236,0.1247,0.1249,0.1264,0.1269,0.1268,0.1274,0.1275,0.1278,0.1284,0.1287,0.1285,0.1364,0.1292,0.1293,0.1307,0.1407,0.142,0.1432,0.1284,0.1284,0.1284,0,0,0.1191,0.1205,0.1215,0.1227,0.1246,0.1253,0.1258,0.1272,0.1275,0.1284,0.1282,0.129,0.1291,0.1297,0.1298,0.1309,0.1366,0.1305,0.1323,0.1419,0.1431,0.1443,0.1554,0.1576,0.1306,0.1306,0.1306,0,0.1188,0.1207,0.1221,0.1234,0.1245,0.1255,0.1268,0.1274,0.1286,0.1301,0.1286,0.1313,0.1299,0.1326,0.1317,0.1312,0.1389,0.1316,0.1423,0.1436,0.1448,0.1559,0.1583,0.1306,0.1306,0.1306,0.1306,0,0.1201,0.1216,0.1225,0.1244,0.1256,0.1272,0.1283,0.1296,0.1299,0.131,0.1338,0.1333,0.1362,0.1341,0.1324,0.1392,0.1429,0.1415,0.1424,0.1462,0.1576,0.1601,0.1306,0.1306,0.1306,0.1306,0,0,0.1195,0.1228,0.123,0.1245,0.1265,0.128,0.1295,0.1323,0.1356,0.1355,0.1411,0.1383,0.1405,0.1408,0.1401,0.1451,0.1581,0.1465,0.147,0.1584,0.183,0.1814,0.184,0.1599,0.1603,0.1606,0.1883,0,0.1201,0.1226,0.1242,0.1266,0.1282,0.1302,0.1321,0.1348,0.1375,0.1432,0.1441,0.1486,0.1425,0.1456,0.1497,0.157,0.1645,0.1509,0.1769,0.1777,0.1766,0.1867,0.1807,0.2044,0.1908,0.1912,0.1915,0,0.1208,0.1226,0.1249,0.1291,0.1302,0.1317,0.1376,0.1397,0.147,0.1502,0.1557,0.1588,0.1661,0.1606,0.1773,0.1701,0.1769,0.1812,0.1824,0.1826,0.1807,0.1981,0.2095,0.2038,0.1953,0.195,0.1948,0,0.1199,0.1235,0.1255,0.1266,0.1309,0.1331,0.1359,0.142,0.146,0.1574,0.1637,0.1729,0.1803,0.1897,0.1959,0.1906,0.2156,0.2106,0.2162,0.2163,0.2169,0.2163,0.2263,0.2244,0.2243,0.2242,0.2241,0,0.1202,0.1219,0.1255,0.1266,0.1299,0.1337,0.1388,0.1439,0.1535,0.1607,0.1682,0.177,0.1881,0.2011,0.2057,0.2203,0.2256,0.2207,0.2243,0.2168,0.2159,0.2151,0.2099,0.2252,0.225,0.2248,0.2246,0,0.1187,0.1209,0.1234,0.1281,0.1292,0.1319,0.1386,0.1437,0.1537,0.1649,0.17,0.1862,0.2046,0.2147,0.2334,0.2343,0.2413,0.2494,0.24,0.2418,0.2386,0.2336,0.24,0.2317,0.2643,0.2645,0.2646,0,0.118,0.1191,0.1229,0.1239,0.1258,0.1297,0.1326,0.1421,0.1491,0.1688,0.1758,0.1972,0.2097,0.2377,0.2464,0.2621,0.2493,0.2641,0.2499,0.2414,0.2388,0.2242,0.2154,0.2535,0.2535,0.2535,0.2535,0,0.1162,0.1176,0.1193,0.1213,0.1239,0.1267,0.1332,0.1382,0.1518,0.1632,0.1812,0.1937,0.2212,0.2362,0.2559,0.2619,0.2509,0.2647,0.2599,0.2352,0.2167,0.2093,0.2329,0.2536,0.2536,0.2536,0.2536,0.2536,0.1141,0.1147,0.1167,0.1183,0.1206,0.1235,0.1251,0.1347,0.1447,0.1615,0.1778,0.1954,0.2228,0.2495,0.2542,0.2606,0.2523,0.2562,0.2534,0.2413,0.2239,0.2474,0.2673,0.2673,0.2674,0.2674,0.2675,0,0.1109,0.112,0.1134,0.115,0.1155,0.1184,0.1249,0.128,0.1373,0.1558,0.1708,0.2004,0.2198,0.2391,0.2567,0.2513,0.2355,0.2457,0.2244,0.2177,0.2463,0.2359,0.2448,0.2449,0.2449,0.2449,0.2449,0.2449,0.1092,0.1092,0.1101,0.109,0.1099,0.11,0.112,0.1187,0.1304,0.1488,0.1657,0.1828,0.2181,0.2462,0.252,0.2451,0.2212,0.2141,0.2084,0.2293,0.2298,0.2303,0.2195,0.2248,0.2247,0.1705,0.1701,0.1698]},{"header":{"parameterUnit":"m.s-1","parameterCategory":2,"la1":30.2991,"la2":30.254,"lo1":-89.0895,"lo2":-89.0444,"dy":0.0017,"dx":0.0017,"nx":28,"ny":28,"refTime":"2025-04-17T09:00:00:Z","depth":"0","parameterNumber":3,"parameterNumberName":"V-component_of_CURRENTS"},"data":[0,0,0,0,0,0,0,0,0,0,0,0,0,0,0,0,0,0,0,0,0,0,0,0,0,0,0,0,0,0,0,0,0,0,0,0,0,0,0,0,0,0,0,0,0,0,0,0,0,0,0,0,0,0,0,0,0,0,-0.0111,-0.0111,0,-0.0175,-0.0176,-0.0177,-0.0204,-0.0204,-0.0204,-0.0204,-0.0281,-0.0283,-0.0286,0,0,0,0,0,0,0,0,0,0,0,0,0,-0.004,-0.0042,-0.011,-0.0111,-0.0112,-0.0175,-0.0176,-0.0177,-0.0204,-0.0204,-0.0204,-0.0204,-0.0281,-0.0283,-0.0286,0,0,0,0,0,0,0,0,0,0,0,0,0,-0.0085,-0.0042,-0.011,-0.0133,-0.0135,-0.0175,-0.0176,-0.0177,-0.0204,-0.0204,-0.0204,-0.0204,-0.028,-0.0283,-0.0286,-0.0312,0,0,-0.0296,-0.0298,0,0,0,0,0,0,0,0,-0.0083,-0.0088,-0.0129,-0.0131,-0.0134,-0.0181,-0.018,-0.0223,-0.0204,-0.0179,-0.0204,-0.0203,-0.0249,-0.0254,-0.0268,-0.0316,-0.0319,-0.0297,-0.0299,-0.03,-0.0301,0,0,0,0,0,0,0,-0.0079,-0.0085,-0.0137,-0.0129,-0.0133,-0.015,-0.0155,-0.0188,-0.0215,-0.0181,-0.0183,-0.0189,-0.025,-0.0265,-0.027,-0.032,-0.0297,-0.03,-0.0302,-0.0303,-0.0403,-0.0404,0,0,0,0,0,0,-0.0069,-0.0082,-0.0135,-0.0139,-0.0106,-0.0151,-0.0157,-0.0167,-0.0215,-0.0222,-0.0189,-0.019,-0.0259,-0.0266,-0.0273,-0.0313,-0.03,-0.0303,-0.0305,-0.0403,-0.0404,-0.0404,0,0,0,0,0,0,-0.0067,-0.0073,-0.0132,-0.0111,-0.012,-0.0152,-0.0162,-0.0168,-0.0182,-0.0221,-0.0228,-0.0197,-0.0259,-0.0268,-0.0307,-0.0316,-0.0305,-0.0308,-0.0402,-0.0403,-0.0404,-0.0389,0,0,0,0,0,0,-0.0065,-0.0072,-0.0076,-0.0111,-0.012,-0.0156,-0.0163,-0.017,-0.0185,-0.0187,-0.0229,-0.0236,-0.026,-0.0302,-0.031,-0.032,-0.0311,-0.0401,-0.0402,-0.0404,-0.0389,-0.0389,-0.039,0,0,0,0,0,-0.0062,-0.0071,-0.0076,-0.0082,-0.0125,-0.0156,-0.0163,-0.0186,-0.0186,-0.0196,-0.0225,-0.0235,-0.0315,-0.0305,-0.0315,-0.0326,-0.0401,-0.0402,-0.0404,-0.0388,-0.0389,-0.039,0,0,0,0,0,0,-0.0044,-0.0075,-0.0082,-0.0099,-0.0124,-0.0161,-0.0172,-0.0184,-0.0215,-0.0215,-0.0247,-0.0257,-0.0292,-0.0313,-0.0301,-0.0359,-0.0358,-0.0362,-0.0343,-0.0344,-0.0345,-0.0299,-0.0313,0,0,0,0,0,-0.0041,-0.0054,-0.0085,-0.0099,-0.011,-0.0139,-0.0153,-0.0169,-0.0199,-0.0212,-0.0242,-0.0275,-0.0307,-0.0328,-0.0359,-0.0394,-0.0359,-0.0407,-0.0408,-0.0408,-0.0378,-0.0343,-0.0336,-0.0409,-0.0409,-0.0409,0,0,-0.0038,-0.0056,-0.0064,-0.0096,-0.0116,-0.0136,-0.0147,-0.017,-0.0185,-0.0216,-0.0248,-0.0278,-0.0316,-0.0354,-0.0371,-0.0373,-0.0369,-0.041,-0.041,-0.0378,-0.0343,-0.0336,-0.0329,-0.041,-0.041,-0.041,0,0,-0.0039,-0.0054,-0.0065,-0.0086,-0.0114,-0.0133,-0.0137,-0.0174,-0.0187,-0.0223,-0.0246,-0.0274,-0.0334,-0.0356,-0.0376,-0.0398,-0.0371,-0.0418,-0.0388,-0.0355,-0.0348,-0.0341,-0.0278,-0.0266,-0.0422,-0.0421,-0.0421,0,-0.0032,-0.0049,-0.0073,-0.009,-0.01,-0.0129,-0.0139,-0.0165,-0.0209,-0.0204,-0.0231,-0.0279,-0.0329,-0.0344,-0.0365,-0.0397,-0.0358,-0.0382,-0.0352,-0.0345,-0.0337,-0.0275,-0.0261,-0.0421,-0.0421,-0.0421,-0.0421,0,-0.0043,-0.0055,-0.0063,-0.009,-0.0107,-0.012,-0.0152,-0.0165,-0.0184,-0.0197,-0.0209,-0.0266,-0.0276,-0.032,-0.0359,-0.0341,-0.0321,-0.0352,-0.0341,-0.0328,-0.0264,-0.025,-0.042,-0.042,-0.0421,-0.0421,0,0,-0.0024,-0.006,-0.0062,-0.0059,-0.0101,-0.0108,-0.013,-0.0138,-0.0103,-0.0167,-0.0114,-0.0218,-0.0211,-0.0232,-0.0274,-0.0276,-0.0223,-0.0295,-0.0294,-0.0214,-0.0112,-0.0139,-0.0126,-0.0243,-0.0241,-0.0239,-0.0083,0,-0.0018,-0.0032,-0.0057,-0.006,-0.0063,-0.0087,-0.0086,-0.0096,-0.0094,-0.0052,-0.0098,-0.0072,-0.0187,-0.0163,-0.0192,-0.0189,-0.0186,-0.0259,-0.0151,-0.0146,-0.0157,-0.0111,-0.0173,-0.0043,-0.0069,-0.0067,-0.0065,0,-0.0013,-0.0019,-0.002,-0.001,-0.0009,-0.0013,0.0029,0.0026,0.0062,0.0081,0.0093,0.0087,0.0089,-0.0004,-0.0001,-0.0035,-0.0071,-0.0094,-0.0089,-0.0101,-0.0147,-0.0064,-0.0016,-0.0187,-0.0043,-0.0045,-0.0046,0,0.0032,0.0016,0.0027,0.002,0.0016,0.0034,0.0044,0.0074,0.0134,0.0202,0.0292,0.0265,0.0327,0.0256,0.0174,0.0115,0.02,0.0119,0.0061,0.006,0.0037,0.003,-0.005,0.0123,0.0123,0.0122,0.0122,0,0.0058,0.007,0.0056,0.0063,0.0111,0.0094,0.0181,0.0197,0.0299,0.0423,0.0385,0.0505,0.0397,0.0416,0.0286,0.0243,0.0293,0.0104,0.0103,0.0038,0.0029,-0.0098,-0.0186,0.0128,0.0127,0.0126,0.0125,0,0.0106,0.0089,0.011,0.0118,0.0132,0.0172,0.0269,0.0366,0.044,0.0622,0.0671,0.0746,0.0772,0.0646,0.0588,0.0437,0.027,0.0316,0.0259,0.0246,0.0,-0.0084,-0.0094,-0.016,0.0306,0.0306,0.0306,0,0.013,0.014,0.0159,0.0193,0.02,0.0267,0.0349,0.0429,0.0566,0.0773,0.0904,0.0986,0.1057,0.0966,0.0721,0.0542,0.0329,0.0346,0.0184,0.001,-0.0083,-0.015,-0.0211,0.0174,0.0173,0.0173,0.0172,0,0.0178,0.0181,0.0198,0.0272,0.0348,0.0454,0.0584,0.071,0.0861,0.102,0.1242,0.1314,0.1235,0.105,0.0786,0.0606,0.021,0.0326,0.0159,-0.017,-0.0256,-0.0328,0.0068,0.0166,0.0167,0.0167,0.0168,0.0168,0.022,0.0248,0.0284,0.0364,0.0466,0.0648,0.0768,0.0931,0.1146,0.1393,0.1457,0.1558,0.127,0.0912,0.0678,0.0174,0.0205,-0.0031,-0.01,-0.0137,-0.027,0.0125,0.0194,0.0194,0.0195,0.0196,0.0196,0,0.0276,0.0317,0.0388,0.0511,0.0673,0.071,0.0944,0.108,0.1319,0.1497,0.1649,0.154,0.114,0.072,0.0103,-0.0208,-0.0346,-0.0403,-0.0541,-0.0571,-0.0205,-0.0289,-0.0339,-0.0339,-0.0339,-0.0339,-0.0339,-0.0338,0.0312,0.0386,0.0428,0.0681,0.0797,0.1046,0.1187,0.1337,0.1467,0.1648,0.1691,0.173,0.1419,0.0291,-0.0468,-0.064,-0.0867,-0.091,-0.097,-0.0786,-0.0759,-0.0733,-0.0836,-0.1,-0.1001,-0.1346,-0.135,-0.1352]}],[{"header":{"parameterUnit":"m.s-1","parameterCategory":2,"la1":30.2991,"la2":30.254,"lo1":-89.0895,"lo2":-89.0444,"dy":0.0017,"dx":0.0017,"nx":28,"ny":28,"refTime":"2025-04-17T09:00:00:Z","depth":"2","parameterNumber":2,"parameterNumberName":"U-component_of_CURRENTS"},"data":[0,0,0,0,0,0,0,0,0,0,0,0,0,0,0,0,0,0,0,0,0,0,0,0,0,0,0,0,0,0,0,0,0,0,0,0,0,0,0,0,0,0,0,0,0,0,0,0,0,0,0,0,0,0,0,0,0,0,0.1291,0.1291,0,0.1318,0.1318,0.1318,0.132,0.132,0.132,0.1319,0.1326,0.1327,0.1327,0,0,0,0,0,0,0,0,0,0,0,0,0,0.1241,0.1242,0.1291,0.1291,0.1292,0.1318,0.1318,0.1319,0.132,0.132,0.1319,0.1319,0.1326,0.1326,0.1327,0,0,0,0,0,0,0,0,0,0,0,0,0,0.1264,0.1242,0.1291,0.1296,0.1297,0.1318,0.1318,0.1319,0.132,0.132,0.1319,0.1319,0.1326,0.1326,0.1327,0.1338,0,0,0.1329,0.1329,0,0,0,0,0,0,0,0,0.1263,0.1266,0.1295,0.1296,0.1297,0.1316,0.1303,0.1324,0.132,0.1311,0.1319,0.1319,0.1322,0.1322,0.1328,0.1339,0.1339,0.1329,0.1329,0.133,0.133,0,0,0,0,0,0,0,0.1261,0.1265,0.1301,0.1295,0.1296,0.1297,0.13,0.1307,0.1317,0.1311,0.1312,0.1316,0.1322,0.1327,0.1328,0.1339,0.1329,0.133,0.133,0.133,0.1357,0.1358,0,0,0,0,0,0,0.126,0.1263,0.13,0.1302,0.1279,0.1299,0.1302,0.1309,0.1317,0.1319,0.1316,0.1316,0.1326,0.1327,0.1328,0.1338,0.133,0.133,0.1331,0.1357,0.1358,0.1358,0,0,0,0,0,0,0.1259,0.1263,0.1299,0.1283,0.1288,0.13,0.1309,0.131,0.1317,0.1321,0.1322,0.1321,0.1326,0.1327,0.1337,0.1339,0.133,0.1331,0.1357,0.1357,0.1358,0.1361,0,0,0,0,0,0,0.1257,0.1262,0.1269,0.1283,0.1289,0.1315,0.1309,0.1311,0.132,0.132,0.1326,0.1326,0.1326,0.1336,0.1337,0.1339,0.1332,0.1356,0.1357,0.1358,0.136,0.1362,0.1363,0,0,0,0,0,0.1255,0.1266,0.1269,0.1273,0.1297,0.1315,0.1318,0.1324,0.1321,0.1328,0.133,0.1326,0.1341,0.1337,0.1338,0.1341,0.1356,0.1357,0.1358,0.136,0.1361,0.1363,0,0,0,0,0,0,0.1247,0.1268,0.1271,0.1287,0.1301,0.1316,0.1324,0.1327,0.1335,0.1334,0.1333,0.1334,0.1341,0.1344,0.1339,0.1351,0.1347,0.1348,0.1348,0.135,0.1351,0.1365,0.1332,0,0,0,0,0,0.1249,0.1263,0.128,0.1293,0.1301,0.1313,0.1321,0.1326,0.1335,0.1338,0.1339,0.1342,0.1347,0.135,0.1355,0.1364,0.1419,0.1366,0.1367,0.1368,0.1382,0.1478,0.149,0.1361,0.1361,0.1361,0,0,0.1249,0.1263,0.1269,0.1292,0.1304,0.1315,0.1317,0.1332,0.1338,0.1337,0.1344,0.1347,0.135,0.1358,0.1362,0.136,0.1435,0.1369,0.137,0.1383,0.148,0.1493,0.1505,0.1361,0.1361,0.1361,0,0,0.1254,0.1269,0.128,0.1293,0.1313,0.1321,0.1326,0.1341,0.1345,0.1354,0.1353,0.1361,0.1365,0.1372,0.1374,0.1387,0.1437,0.1382,0.14,0.1493,0.1505,0.1516,0.1612,0.1632,0.1383,0.1383,0.1383,0,0.1251,0.1271,0.1286,0.13,0.1312,0.1323,0.1336,0.1343,0.1356,0.1371,0.1356,0.1386,0.1373,0.1402,0.1393,0.139,0.1459,0.1392,0.1497,0.1509,0.1521,0.1616,0.1638,0.1383,0.1383,0.1383,0.1383,0,0.1264,0.128,0.1289,0.1309,0.1323,0.1339,0.1351,0.1365,0.1368,0.1381,0.141,0.1406,0.1437,0.1417,0.1401,0.1468,0.1497,0.1489,0.1498,0.1535,0.1632,0.1655,0.1384,0.1384,0.1383,0.1383,0,0,0.1256,0.1291,0.1293,0.1309,0.1331,0.1346,0.1362,0.1392,0.1428,0.1427,0.1486,0.1457,0.148,0.1485,0.1478,0.1527,0.1645,0.1538,0.1543,0.164,0.1875,0.1765,0.178,0.1668,0.1672,0.1675,0.1914,0,0.1261,0.1288,0.1304,0.1329,0.1345,0.1367,0.1388,0.1417,0.1447,0.1508,0.1517,0.1566,0.1501,0.1534,0.1571,0.1639,0.1705,0.1582,0.1819,0.1826,0.1729,0.1801,0.1642,0.183,0.1937,0.194,0.1943,0,0.1267,0.1286,0.131,0.1354,0.1364,0.138,0.1443,0.1467,0.1546,0.158,0.1637,0.167,0.1739,0.1685,0.1832,0.1767,0.1823,0.186,0.1871,0.1783,0.1757,0.1808,0.1868,0.1982,0.1979,0.1976,0.1973,0,0.1256,0.1293,0.1313,0.1325,0.137,0.1393,0.1424,0.149,0.1535,0.1655,0.1722,0.1808,0.188,0.1961,0.2,0.1958,0.2172,0.2137,0.2095,0.209,0.2006,0.1984,0.2261,0.2261,0.226,0.226,0.2259,0,0.1258,0.1274,0.1313,0.1324,0.1359,0.1398,0.1455,0.1508,0.1614,0.1696,0.1769,0.1862,0.1955,0.2065,0.2094,0.2163,0.2264,0.2125,0.2148,0.1998,0.1975,0.2134,0.2116,0.2269,0.2267,0.2265,0.2264,0,0.1241,0.1265,0.129,0.1338,0.1352,0.138,0.1456,0.1514,0.1618,0.1745,0.1799,0.1956,0.2097,0.2165,0.2323,0.2281,0.236,0.2354,0.2161,0.2153,0.2204,0.2184,0.2379,0.2377,0.2375,0.2374,0.2373,0,0.1234,0.1245,0.1284,0.1297,0.1317,0.1361,0.1398,0.15,0.158,0.1789,0.1867,0.2044,0.2123,0.2294,0.2298,0.2366,0.2382,0.2234,0.2087,0.2216,0.222,0.2202,0.2184,0.2009,0.2005,0.2001,0.1999,0,0.1215,0.1228,0.1245,0.1273,0.1306,0.1347,0.1423,0.1485,0.1636,0.1746,0.1929,0.2012,0.2153,0.2142,0.2183,0.2183,0.2201,0.2165,0.2422,0.1955,0.1872,0.1873,0.1868,0.197,0.1973,0.1975,0.1976,0.1978,0.1192,0.1199,0.1222,0.1247,0.1281,0.1339,0.1377,0.1473,0.1584,0.1735,0.187,0.1922,0.197,0.1934,0.1924,0.1925,0.2051,0.1968,0.1977,0.199,0.1856,0.1769,0.1826,0.1828,0.183,0.1831,0.1833,0,0.1161,0.1176,0.1197,0.1231,0.1267,0.1294,0.1396,0.1427,0.1526,0.1623,0.172,0.161,0.1596,0.1652,0.1614,0.1619,0.1593,0.1559,0.1526,0.1557,0.1584,0.1426,0.1284,0.1282,0.1281,0.1279,0,0,0.1145,0.1153,0.1168,0.1206,0.1233,0.1298,0.1348,0.1383,0.1435,0.1414,0.1412,0.1492,0.157,0.1381,0.1389,0.1338,0.1422,0.1283,0.1728,0.1718,0.1742,0.1833,0.1626,0,0,0,0,0]},{"header":{"parameterUnit":"m.s-1","parameterCategory":2,"la1":30.2991,"la2":30.254,"lo1":-89.0895,"lo2":-89.0444,"dy":0.0017,"dx":0.0017,"nx":28,"ny":28,"refTime":"2025-04-17T09:00:00:Z","depth":"2","parameterNumber":3,"parameterNumberName":"V-component_of_CURRENTS"},"data":[0,0,0,0,0,0,0,0,0,0,0,0,0,0,0,0,0,0,0,0,0,0,0,0,0,0,0,0,0,0,0,0,0,0,0,0,0,0,0,0,0,0,0,0,0,0,0,0,0,0,0,0,0,0,0,0,0,0,-0.0198,-0.0198,0,-0.026,-0.0261,-0.0261,-0.029,-0.029,-0.029,-0.029,-0.0368,-0.037,-0.0372,0,0,0,0,0,0,0,0,0,0,0,0,0,-0.0136,-0.0137,-0.0198,-0.0198,-0.0199,-0.026,-0.0261,-0.0262,-0.029,-0.029,-0.029,-0.029,-0.0367,-0.037,-0.0372,0,0,0,0,0,0,0,0,0,0,0,0,0,-0.0178,-0.0137,-0.0198,-0.022,-0.0223,-0.026,-0.0261,-0.0262,-0.0291,-0.029,-0.029,-0.029,-0.0366,-0.037,-0.0373,-0.0397,0,0,-0.0383,-0.0384,0,0,0,0,0,0,0,0,-0.0175,-0.018,-0.0216,-0.0219,-0.0222,-0.0266,-0.0268,-0.0308,-0.0291,-0.0266,-0.029,-0.029,-0.0335,-0.0341,-0.0354,-0.0401,-0.0404,-0.0383,-0.0385,-0.0387,-0.0388,0,0,0,0,0,0,0,-0.0172,-0.0178,-0.0223,-0.0217,-0.022,-0.0238,-0.0244,-0.0275,-0.0302,-0.0268,-0.027,-0.0275,-0.0337,-0.0351,-0.0356,-0.0405,-0.0383,-0.0386,-0.0388,-0.0389,-0.0484,-0.0484,0,0,0,0,0,0,-0.0162,-0.0175,-0.0221,-0.0225,-0.0196,-0.0239,-0.0245,-0.0253,-0.0301,-0.0308,-0.0275,-0.0276,-0.0345,-0.0352,-0.0359,-0.0394,-0.0387,-0.039,-0.0392,-0.0483,-0.0484,-0.0484,0,0,0,0,0,0,-0.016,-0.0165,-0.0219,-0.0201,-0.0208,-0.024,-0.0249,-0.0254,-0.0267,-0.0307,-0.0314,-0.0282,-0.0345,-0.0354,-0.0391,-0.0397,-0.0391,-0.0394,-0.0483,-0.0483,-0.0484,-0.0462,0,0,0,0,0,0,-0.0158,-0.0164,-0.0167,-0.02,-0.0209,-0.024,-0.0249,-0.0256,-0.027,-0.0272,-0.0314,-0.0321,-0.0346,-0.0386,-0.0394,-0.0401,-0.0397,-0.0482,-0.0483,-0.0484,-0.0462,-0.0462,-0.0462,0,0,0,0,0,-0.0156,-0.0161,-0.0167,-0.0172,-0.0211,-0.024,-0.0247,-0.0269,-0.027,-0.0279,-0.0308,-0.032,-0.0398,-0.0389,-0.0399,-0.0407,-0.0481,-0.0483,-0.0484,-0.0462,-0.0462,-0.0462,0,0,0,0,0,0,-0.0136,-0.0165,-0.0172,-0.0186,-0.021,-0.0245,-0.0255,-0.0267,-0.0296,-0.0297,-0.033,-0.034,-0.0373,-0.0395,-0.0384,-0.0438,-0.044,-0.0444,-0.042,-0.0421,-0.042,-0.0377,-0.0399,0,0,0,0,0,-0.0132,-0.0143,-0.0173,-0.0184,-0.0194,-0.0222,-0.0236,-0.0251,-0.028,-0.0292,-0.0323,-0.0355,-0.0387,-0.0406,-0.0438,-0.0469,-0.0453,-0.0481,-0.048,-0.048,-0.0452,-0.0437,-0.0432,-0.0488,-0.0488,-0.0488,0,0,-0.0128,-0.0145,-0.0151,-0.018,-0.02,-0.0217,-0.023,-0.025,-0.0263,-0.0297,-0.0325,-0.0356,-0.0395,-0.043,-0.0446,-0.0448,-0.0458,-0.0482,-0.0481,-0.0453,-0.0438,-0.0432,-0.0426,-0.0489,-0.0489,-0.0489,0,0,-0.0125,-0.0139,-0.0147,-0.0166,-0.0193,-0.0211,-0.0214,-0.0249,-0.0262,-0.0295,-0.032,-0.0347,-0.0405,-0.0427,-0.0446,-0.0463,-0.0457,-0.0483,-0.0449,-0.0436,-0.043,-0.0425,-0.0401,-0.0394,-0.0484,-0.0484,-0.0484,0,-0.0116,-0.0129,-0.0154,-0.0168,-0.0176,-0.0206,-0.0212,-0.0236,-0.0279,-0.0276,-0.0301,-0.0353,-0.0398,-0.0414,-0.0429,-0.046,-0.0444,-0.0447,-0.0433,-0.0427,-0.0422,-0.0399,-0.0391,-0.0483,-0.0483,-0.0483,-0.0484,0,-0.0122,-0.0131,-0.0137,-0.0161,-0.0176,-0.0188,-0.0217,-0.023,-0.0248,-0.0263,-0.0279,-0.0333,-0.0348,-0.0386,-0.042,-0.041,-0.0408,-0.0431,-0.0425,-0.0414,-0.0392,-0.0384,-0.0482,-0.0482,-0.0483,-0.0483,0,0,-0.0099,-0.0132,-0.0133,-0.0131,-0.0168,-0.0175,-0.0193,-0.0201,-0.0175,-0.0233,-0.0192,-0.0283,-0.0283,-0.0304,-0.0344,-0.0352,-0.0327,-0.0375,-0.0375,-0.0336,-0.028,-0.0416,-0.042,-0.0345,-0.0343,-0.0342,-0.0279,0,-0.009,-0.01,-0.0123,-0.0124,-0.0126,-0.0149,-0.0149,-0.016,-0.0165,-0.0135,-0.0178,-0.0162,-0.026,-0.0243,-0.0275,-0.0291,-0.0304,-0.034,-0.0308,-0.0306,-0.0416,-0.0415,-0.0372,-0.0325,-0.0271,-0.027,-0.0269,0,-0.0082,-0.0086,-0.0084,-0.0077,-0.0077,-0.0079,-0.0048,-0.0052,-0.003,-0.0018,-0.0016,-0.0027,-0.0035,-0.0112,-0.0149,-0.0163,-0.0218,-0.0253,-0.0251,-0.0373,-0.0428,-0.0328,-0.0313,-0.0256,-0.0257,-0.0258,-0.0259,0,-0.0038,-0.0052,-0.0039,-0.0045,-0.0051,-0.0035,-0.0027,-0.0011,0.0037,0.0086,0.0155,0.0117,0.0149,0.0074,-0.0056,-0.0067,-0.0098,-0.0115,-0.0292,-0.03,-0.0254,-0.0264,-0.0141,-0.0142,-0.0142,-0.0142,-0.0142,0,-0.0012,0.0,-0.0012,-0.0005,0.0037,0.002,0.0088,0.01,0.0177,0.0254,0.0236,0.0282,0.0198,0.0148,0.0021,-0.0131,-0.0044,-0.0272,-0.0296,-0.0252,-0.0262,-0.0196,-0.0203,-0.014,-0.014,-0.014,-0.0141,0,0.0033,0.0019,0.0039,0.0046,0.0057,0.0092,0.0168,0.024,0.0298,0.0415,0.0455,0.0458,0.0365,0.023,0.0115,-0.0024,-0.0157,-0.0246,-0.0201,-0.0225,-0.0366,-0.0372,-0.0356,-0.036,-0.0364,-0.0367,-0.037,0,0.0055,0.0066,0.0083,0.0111,0.0118,0.0172,0.0233,0.0295,0.0391,0.0484,0.0565,0.0522,0.042,0.0191,-0.0012,-0.0228,-0.0267,-0.0338,-0.0381,-0.0364,-0.0388,-0.0389,-0.0391,-0.0284,-0.0285,-0.0287,-0.0288,0,0.0099,0.0103,0.0118,0.0178,0.0237,0.0311,0.0403,0.048,0.0564,0.0621,0.0636,0.055,0.0354,0.0122,-0.017,-0.0318,-0.0298,-0.0379,-0.0324,-0.0289,-0.0306,-0.0328,-0.0328,-0.03,-0.0299,-0.0298,-0.0297,-0.0297,0.0136,0.016,0.0188,0.0248,0.0337,0.0437,0.0488,0.0562,0.0633,0.0699,0.0632,0.0515,0.0335,-0.0072,-0.0279,-0.0441,-0.0448,-0.0493,-0.0482,-0.0471,-0.0527,-0.0556,-0.0604,-0.0604,-0.0604,-0.0605,-0.0605,0,0.0179,0.0208,0.0264,0.0354,0.0481,0.0504,0.0613,0.0632,0.0651,0.0668,0.0609,0.0376,0.0127,-0.0068,-0.031,-0.0509,-0.0457,-0.057,-0.0428,-0.0417,-0.0407,-0.0454,-0.0514,-0.0514,-0.0514,-0.0514,0,0,0.0206,0.0257,0.0282,0.0467,0.0557,0.0665,0.0704,0.0675,0.0671,0.0577,0.0528,0.0445,0.0182,0.0027,-0.0211,-0.0344,-0.0336,-0.0381,-0.044,-0.0234,-0.0221,-0.0357,-0.042,0,0,0,0,0]}],[{"header":{"parameterUnit":"m.s-1","parameterCategory":2,"la1":30.2991,"la2":30.254,"lo1":-89.0895,"lo2":-89.0444,"dy":0.0017,"dx":0.0017,"nx":28,"ny":28,"refTime":"2025-04-17T09:00:00:Z","depth":"4","parameterNumber":2,"parameterNumberName":"U-component_of_CURRENTS"},"data":[0,0,0,0,0,0,0,0,0,0,0,0,0,0,0,0,0,0,0,0,0,0,0,0,0,0,0,0,0,0,0,0,0,0,0,0,0,0,0,0,0,0,0,0,0,0,0,0,0,0,0,0,0,0,0,0,0,0,0.0763,0.0764,0,0.0807,0.0808,0.0808,0.0849,0.085,0.085,0.0851,0.0899,0.09,0.09,0,0,0,0,0,0,0,0,0,0,0,0,0,0.0718,0.0719,0.0763,0.0764,0.0764,0.0807,0.0808,0.0808,0.0849,0.085,0.085,0.0851,0.0899,0.09,0.0901,0,0,0,0,0,0,0,0,0,0,0,0,0,0.0747,0.0719,0.0763,0.079,0.0793,0.0807,0.0808,0.0808,0.0849,0.085,0.085,0.0851,0.0898,0.0899,0.0901,0.0892,0,0,0.0904,0.0905,0,0,0,0,0,0,0,0,0.0746,0.0749,0.0785,0.0788,0.0791,0.0824,0.081,0.0837,0.0849,0.0827,0.0851,0.0851,0.0874,0.0877,0.0883,0.0894,0.0896,0.0904,0.0905,0.0906,0.0906,0,0,0,0,0,0,0,0.0743,0.0747,0.078,0.0786,0.079,0.0801,0.0806,0.0815,0.0845,0.0829,0.0832,0.0837,0.0875,0.0882,0.0884,0.0897,0.0904,0.0905,0.0906,0.0907,0.0999,0.1,0,0,0,0,0,0,0.0737,0.0745,0.0779,0.0782,0.077,0.0801,0.0807,0.0812,0.0845,0.0851,0.0837,0.0839,0.0879,0.0883,0.0886,0.0967,0.0906,0.0907,0.0907,0.0997,0.0999,0.1001,0,0,0,0,0,0,0.0736,0.074,0.0777,0.0765,0.077,0.0801,0.0807,0.0813,0.0842,0.0851,0.0857,0.0862,0.088,0.0885,0.0919,0.0966,0.0907,0.0908,0.0995,0.0998,0.1,0.1071,0,0,0,0,0,0,0.0735,0.0739,0.0748,0.0764,0.0771,0.0797,0.0806,0.0813,0.0842,0.0847,0.0874,0.0879,0.0881,0.0917,0.092,0.0966,0.0909,0.0993,0.0996,0.0999,0.1066,0.1076,0.1084,0,0,0,0,0,0.0733,0.0736,0.0748,0.0752,0.0779,0.0797,0.0802,0.0826,0.0843,0.0856,0.0882,0.0879,0.0941,0.0919,0.0922,0.097,0.0991,0.0995,0.0999,0.1063,0.1074,0.1083,0,0,0,0,0,0,0.0719,0.0741,0.0754,0.0764,0.0786,0.0805,0.0817,0.0837,0.0868,0.088,0.0892,0.0898,0.0941,0.0945,0.0921,0.1007,0.0969,0.0974,0.1016,0.1027,0.1035,0.1039,0.091,0,0,0,0,0,0.072,0.073,0.0754,0.0763,0.0774,0.0801,0.0815,0.0836,0.0861,0.0877,0.0898,0.0927,0.0956,0.0983,0.0993,0.104,0.1024,0.1076,0.1085,0.1092,0.1098,0.1123,0.1135,0.1014,0.1014,0.1014,0,0,0.0716,0.073,0.0735,0.0761,0.0779,0.0797,0.0812,0.0839,0.0871,0.0875,0.0925,0.0946,0.0969,0.102,0.1043,0.1036,0.1113,0.1097,0.1103,0.1105,0.1129,0.114,0.1151,0.1016,0.1016,0.1016,0,0,0.071,0.0727,0.0737,0.0759,0.0793,0.0805,0.0819,0.0855,0.089,0.094,0.0953,0.1006,0.1047,0.1082,0.1104,0.1166,0.1143,0.1177,0.1243,0.1269,0.1279,0.1287,0.1258,0.1264,0.12,0.12,0.12,0,0.071,0.0723,0.0743,0.0764,0.0783,0.0811,0.0833,0.0868,0.0916,0.0959,0.0966,0.1058,0.108,0.1154,0.119,0.1188,0.1178,0.1203,0.128,0.1288,0.1296,0.1264,0.1269,0.1204,0.1204,0.1203,0.1203,0,0.071,0.0733,0.0741,0.0774,0.0798,0.0819,0.0866,0.0909,0.0957,0.1005,0.1092,0.1129,0.1193,0.1217,0.1233,0.1311,0.1275,0.1272,0.1251,0.1312,0.1274,0.1278,0.121,0.1208,0.1207,0.1206,0,0,0.0676,0.0731,0.0733,0.0769,0.0809,0.0834,0.0887,0.0954,0.1011,0.1083,0.1152,0.1246,0.1285,0.1312,0.1337,0.1381,0.1429,0.1368,0.1367,0.1334,0.145,0.1394,0.1392,0.1446,0.1447,0.1449,0.1392,0,0.0673,0.071,0.0736,0.0785,0.0815,0.0867,0.0919,0.0994,0.1055,0.1125,0.1208,0.1273,0.1315,0.1354,0.1412,0.1414,0.1448,0.1442,0.14,0.1398,0.1338,0.1399,0.1455,0.1395,0.1396,0.1396,0.1397,0,0.0666,0.0695,0.0741,0.0824,0.0842,0.0885,0.0977,0.1033,0.1136,0.119,0.1279,0.1315,0.1404,0.1412,0.1481,0.1477,0.1481,0.1479,0.1476,0.1405,0.1352,0.1328,0.1404,0.1403,0.1402,0.1402,0.1402,0,0.0647,0.0703,0.0744,0.0771,0.086,0.0918,0.0973,0.1074,0.1132,0.123,0.1266,0.1362,0.1413,0.1446,0.1481,0.1482,0.1513,0.1503,0.1446,0.1438,0.147,0.1461,0.1543,0.1543,0.1543,0.1543,0.1544,0,0.0636,0.0676,0.0753,0.079,0.0863,0.0935,0.1025,0.1096,0.1177,0.1242,0.1314,0.1353,0.1434,0.1461,0.1472,0.1475,0.1513,0.1461,0.1438,0.1496,0.1492,0.147,0.1462,0.1541,0.1542,0.1542,0.1542,0,0.062,0.0664,0.0733,0.0831,0.087,0.0935,0.1045,0.1102,0.1187,0.1253,0.1281,0.1363,0.1413,0.1449,0.1483,0.1465,0.1455,0.1442,0.1472,0.1449,0.1351,0.1348,0.1356,0.1354,0.1352,0.1351,0.1349,0,0.0614,0.065,0.0757,0.0801,0.0857,0.0951,0.1015,0.111,0.1154,0.1253,0.1272,0.1342,0.1392,0.1367,0.1429,0.1416,0.1422,0.1379,0.1407,0.1365,0.1341,0.134,0.1339,0.1347,0.1346,0.1346,0.1345,0,0.0607,0.0656,0.0707,0.0796,0.0873,0.0932,0.1025,0.1042,0.1145,0.121,0.1233,0.125,0.1302,0.1331,0.1339,0.1335,0.1385,0.1361,0.1365,0.1391,0.1353,0.1331,0.1333,0.1339,0.134,0.1341,0.1341,0,0.0605,0.0629,0.0707,0.0782,0.0857,0.09,0.095,0.1,0.1048,0.1143,0.1148,0.1219,0.1288,0.1289,0.1292,0.1292,0.1287,0.1239,0.1249,0.1257,0.1261,0.1201,0.1129,0,0,0,0,0,0.0595,0.0623,0.0686,0.0761,0.0824,0.0872,0.095,0.0992,0.1073,0.1064,0.1101,0.1138,0.1164,0.12,0.1185,0.1274,0.13,0.1252,0.1251,0.1306,0.1313,0.1334,0,0,0,0,0,0,0.059,0.0643,0.0671,0.0722,0.0764,0.0828,0.0872,0.0926,0.0923,0.1001,0.102,0.1077,0.1121,0.1163,0.1165,0.1178,0.1157,0.1299,0.1296,0.1302,0.1308,0.1314,0.1338,0,0,0,0,0]},{"header":{"parameterUnit":"m.s-1","parameterCategory":2,"la1":30.2991,"la2":30.254,"lo1":-89.0895,"lo2":-89.0444,"dy":0.0017,"dx":0.0017,"nx":28,"ny":28,"refTime":"2025-04-17T09:00:00:Z","depth":"4","parameterNumber":3,"parameterNumberName":"V-component_of_CURRENTS"},"data":[0,0,0,0,0,0,0,0,0,0,0,0,0,0,0,0,0,0,0,0,0,0,0,0,0,0,0,0,0,0,0,0,0,0,0,0,0,0,0,0,0,0,0,0,0,0,0,0,0,0,0,0,0,0,0,0,0,0,-0.0079,-0.0079,0,-0.0089,-0.0089,-0.009,-0.0138,-0.0139,-0.014,-0.0141,-0.018,-0.018,-0.018,0,0,0,0,0,0,0,0,0,0,0,0,0,-0.0101,-0.01,-0.0078,-0.0079,-0.0079,-0.0089,-0.0089,-0.009,-0.0138,-0.0139,-0.014,-0.0142,-0.018,-0.018,-0.018,0,0,0,0,0,0,0,0,0,0,0,0,0,-0.0099,-0.01,-0.0078,-0.0104,-0.0106,-0.0089,-0.0089,-0.009,-0.0137,-0.0139,-0.0141,-0.0142,-0.018,-0.018,-0.018,-0.0147,0,0,-0.018,-0.018,0,0,0,0,0,0,0,0,-0.0099,-0.0098,-0.01,-0.0102,-0.0105,-0.0114,-0.0112,-0.011,-0.0137,-0.0126,-0.0141,-0.0143,-0.0159,-0.0161,-0.0159,-0.0148,-0.015,-0.018,-0.018,-0.018,-0.018,0,0,0,0,0,0,0,-0.0099,-0.0098,-0.0083,-0.01,-0.0103,-0.0115,-0.0117,-0.0112,-0.0134,-0.0127,-0.013,-0.0131,-0.0161,-0.0159,-0.0161,-0.0151,-0.018,-0.018,-0.018,-0.018,-0.0109,-0.0108,0,0,0,0,0,0,-0.0096,-0.0098,-0.0083,-0.0083,-0.0106,-0.0113,-0.0115,-0.0109,-0.0133,-0.0138,-0.0129,-0.0133,-0.0158,-0.0161,-0.0162,-0.0125,-0.018,-0.018,-0.018,-0.0111,-0.0109,-0.0107,0,0,0,0,0,0,-0.0096,-0.0094,-0.0082,-0.0091,-0.0091,-0.0111,-0.0104,-0.0109,-0.0117,-0.0135,-0.0141,-0.0134,-0.016,-0.0162,-0.0153,-0.0127,-0.018,-0.018,-0.0113,-0.011,-0.0108,-0.005,0,0,0,0,0,0,-0.0096,-0.0094,-0.0088,-0.0091,-0.009,-0.0064,-0.0103,-0.0108,-0.0114,-0.0119,-0.014,-0.0145,-0.0161,-0.0152,-0.0153,-0.0128,-0.018,-0.0116,-0.0112,-0.0109,-0.0054,-0.0046,-0.0038,0,0,0,0,0,-0.0097,-0.0071,-0.0088,-0.0086,-0.0082,-0.0063,-0.0063,-0.0084,-0.0112,-0.0101,-0.0118,-0.0145,-0.013,-0.0151,-0.0152,-0.0127,-0.0118,-0.0113,-0.0109,-0.0058,-0.0047,-0.0038,0,0,0,0,0,0,-0.0074,-0.0074,-0.0092,-0.0068,-0.0067,-0.0071,-0.0061,-0.0081,-0.0085,-0.0095,-0.0123,-0.0127,-0.0108,-0.0119,-0.0141,-0.0093,-0.0127,-0.0122,-0.0087,-0.0078,-0.007,-0.0131,-0.018,0,0,0,0,0,-0.0067,-0.0051,-0.0056,-0.0037,-0.0035,-0.0052,-0.005,-0.0063,-0.0067,-0.0073,-0.0088,-0.0095,-0.0086,-0.0086,-0.0081,-0.0055,-0.0125,-0.0037,-0.0029,-0.0022,-0.007,-0.0139,-0.0143,-0.0093,-0.0093,-0.0093,0,0,-0.0053,-0.0051,-0.0043,-0.0032,-0.0035,-0.0009,-0.0054,-0.0042,-0.0023,-0.0073,-0.0052,-0.0068,-0.0072,-0.0044,-0.0035,-0.0054,-0.0064,-0.0017,-0.0011,-0.0065,-0.0135,-0.0141,-0.0146,-0.009,-0.0091,-0.0091,0,0,-0.0006,-0.0015,0.0014,0.0022,0.0023,0.0021,0.0024,0.0019,0.0013,0.003,0.0004,-0.001,0.0012,0.0002,0.0003,0.006,-0.0018,0.008,0.0066,0.0003,-0.0003,-0.001,-0.0082,-0.0096,0.0083,0.0083,0.0083,0,0.0008,0.0037,0.0026,0.0057,0.006,0.0038,0.0063,0.0077,0.0075,0.0043,0.0046,0.0013,0.0028,0.002,0.0049,0.0073,0.0011,0.003,0.0008,-0.0,-0.0008,-0.0081,-0.0098,0.0086,0.0086,0.0086,0.0085,0,0.0077,0.0094,0.0116,0.0142,0.0149,0.0171,0.0175,0.0171,0.0149,0.0124,0.0092,0.0092,0.0047,0.0083,0.0085,0.0049,0.0016,0.0025,-0.0029,-0.0011,-0.0087,-0.0105,0.0091,0.009,0.0089,0.0088,0,0,0.0114,0.0154,0.0158,0.015,0.0184,0.0181,0.022,0.0201,0.0161,0.0161,0.0094,0.0128,0.0061,0.0056,0.0055,0.0012,-0.0057,-0.0008,-0.0013,-0.0104,-0.0225,-0.0139,-0.0151,-0.0062,-0.0065,-0.0067,-0.0249,0,0.0161,0.021,0.0227,0.0253,0.0261,0.0244,0.0262,0.0236,0.0202,0.0142,0.0101,0.006,0.008,0.0043,0.0004,-0.0053,-0.0107,-0.0011,-0.0212,-0.0219,-0.0164,-0.0169,-0.0077,-0.0263,-0.0267,-0.027,-0.0272,0,0.0209,0.0226,0.0261,0.024,0.0239,0.0258,0.0195,0.0211,0.014,0.01,0.0026,-0.0019,-0.0083,-0.0059,-0.0194,-0.0142,-0.0193,-0.0233,-0.024,-0.021,-0.0167,-0.0288,-0.0306,-0.0303,-0.0301,-0.0299,-0.0297,0,0.0184,0.023,0.0238,0.0246,0.0248,0.0231,0.0225,0.0171,0.0144,0.0055,-0.0006,-0.0099,-0.0152,-0.0242,-0.0288,-0.027,-0.0444,-0.0423,-0.0405,-0.04,-0.0454,-0.0445,-0.054,-0.054,-0.054,-0.0539,-0.0539,0,0.02,0.0199,0.022,0.0219,0.0199,0.0197,0.0152,0.0127,0.0065,0.0016,-0.0041,-0.0095,-0.0204,-0.0292,-0.0347,-0.0426,-0.0491,-0.0442,-0.0447,-0.0417,-0.0402,-0.0466,-0.0455,-0.0546,-0.0545,-0.0543,-0.0542,0,0.0164,0.019,0.0188,0.019,0.0187,0.0163,0.0141,0.0097,0.0049,-0.0018,-0.0047,-0.0135,-0.023,-0.0323,-0.0464,-0.0483,-0.0571,-0.0575,-0.0553,-0.0548,-0.0487,-0.0471,-0.0629,-0.0628,-0.0626,-0.0625,-0.0625,0,0.0153,0.0152,0.0162,0.0161,0.0166,0.0143,0.0126,0.0093,0.0059,-0.002,-0.0056,-0.0158,-0.0207,-0.0354,-0.044,-0.0573,-0.055,-0.0627,-0.0553,-0.0511,-0.05,-0.0485,-0.0471,-0.0623,-0.0622,-0.0622,-0.0622,0,0.0124,0.0128,0.0129,0.0133,0.0124,0.0112,0.0094,0.0072,0.0032,-0.0015,-0.0051,-0.0119,-0.0217,-0.0315,-0.0405,-0.0486,-0.0602,-0.0615,-0.0618,-0.055,-0.0505,-0.0492,-0.0479,-0.0618,-0.0618,-0.0619,-0.0619,0,0.01,0.0097,0.0102,0.0096,0.0088,0.0078,0.0082,0.0064,0.0035,-0.0023,-0.0025,-0.0111,-0.017,-0.027,-0.0351,-0.0424,-0.0441,-0.0466,-0.0477,-0.0483,-0.035,-0.0266,-0.034,0,0,0,0,0,0.0078,0.007,0.0067,0.006,0.005,0.0041,0.0047,0.0051,0.0029,0.002,0.0003,-0.006,-0.0161,-0.0215,-0.0272,-0.0351,-0.0477,-0.0424,-0.0517,-0.0595,-0.06,-0.0456,0,0,0,0,0,0,0.0063,0.0059,0.0055,0.0018,0.0003,-0.0011,-0.0005,-0.0001,0.0004,-0.0007,-0.0048,-0.0079,-0.0175,-0.0132,-0.0279,-0.0305,-0.037,-0.0478,-0.0479,-0.0593,-0.0597,-0.0601,-0.0455,0,0,0,0,0]}]]